Weather History for San Jose, Costa Rica

Change the Weather History Date:

Friday, February 10, 2012

  Actual Average Record
Temperature  
Mean Temperature 74 °F -  
Max Temperature 84 °F 82 °F 87 °F (1998)
Min Temperature 65 °F 64 °F 64 °F (2005)
Cooling Degree Days 10    
Growing Degree Days 24 (Base 50)    
Moisture  
Dew Point 56 °F    
Average Humidity 55    
Maximum Humidity 73    
Minimum Humidity 25    
Precipitation  
Precipitation 0.00 in 0.01 in - ()
Sea Level Pressure  
Sea Level Pressure 29.99 in    
Wind  
Wind Speed 15 mph ()    
Max Wind Speed 99 mph    
Max Gust Speed 24 mph    
Visibility 8.1 miles    
Events      
Averages and records for this station are not official NWS values.
T = Trace of Precipitation, MM = Missing Value Source: Averaged Metar Reports

Daily Weather History Graph

Daily Weather History Graph

Search for Another Location

Airport:

Trip Planner

Search our weather history database for the weather conditions in past years. The results will help you decide how hot, cold, wet, or windy it might be!

Date:

Astronomy

Feb. 10, 2012 Rise Set
Actual Time 5:57 AM CST 5:44 PM CST
Civil Twilight 5:36 AM CST 6:05 PM CST
Nautical Twilight 5:11 AM CST 6:30 PM CST
Astronomical Twilight 4:46 AM CST 6:55 PM CST
Moon 8:26 PM CST (2/10) 7:53 AM CST (2/10)
Length of Visible Light 12h 29m
Length of Day
11h 46m
Waning Gibbous, 90% of the Moon is Illuminated
Feb 10
Waning Gibbous
Feb 14
Last Quarter
Feb 21
New
Feb 29
First Quarter
Mar 8
Full

Hourly Weather History & Observations

Time (CST) Temp. Heat Index Dew Point Humidity Pressure Visibility Wind Dir Wind Speed Gust Speed Precip Events Conditions
12:00 AM 67 °F - 55 °F 56% 29.90 in 12 mi ESE 11.5 mph - -   Clear
12:00 AM 68.0 °F - 55.4 °F 64% 30.05 in - ESE 11.5 mph - N/A   Clear
1:00 AM 68.0 °F - 55.4 °F 64% 30.05 in - ESE 11.5 mph - N/A   Clear
2:00 AM 66.2 °F - 55.4 °F 68% 30.00 in - ENE 11.5 mph - N/A   Clear
3:00 AM - - 56 °F % 29.88 in 0 mi North 99.0 mph - -   Clear
3:00 AM 66.2 °F - 55.4 °F 68% 29.99 in - ENE 9.2 mph - N/A   Clear
4:04 AM 66.2 °F - 55.4 °F 68% 29.99 in - ESE 11.5 mph - N/A   Clear
5:00 AM 66.2 °F - 55.4 °F 68% 30.00 in - East 13.8 mph - N/A   Clear
6:00 AM 66.2 °F - 53.6 °F 64% 30.02 in - ESE 13.8 mph - N/A   Clear
7:00 AM 68.0 °F - 55.4 °F 64% 30.03 in - ESE 16.1 mph - N/A   Clear
8:00 AM 71.6 °F - 55.4 °F 57% 30.04 in - East 20.7 mph - N/A   Clear
9:00 AM 73 °F - 55 °F 43% 29.91 in 12 mi East 21.9 mph - -   Mostly Cloudy
9:00 AM 73.4 °F - 55.4 °F 53% 30.06 in - East 21.9 mph - N/A   Clear
10:00 AM 75.2 °F - 53.6 °F 47% 30.06 in - East 16.1 mph - N/A   Clear
11:00 AM 80.6 °F - 51.8 °F 37% 30.05 in - ENE 19.6 mph - N/A   Clear
12:00 PM 82 °F - 52 °F 25% 29.87 in 12 mi East 12.7 mph - -   Partly Cloudy
12:00 PM 82.4 °F - 51.8 °F 35% 30.03 in - East 12.7 mph 24.2 mph N/A   Clear
1:00 PM 84.2 °F - 51.8 °F 33% 30.00 in 6.2 mi East 16.1 mph - N/A   Mostly Cloudy
2:00 PM 82.4 °F 81.4 °F 53.6 °F 37% 29.98 in 6.2 mi East 15.0 mph - N/A   Mostly Cloudy
3:00 PM 82 °F - 56 °F 30% 29.82 in 40 mi East 10.4 mph - -   Scattered Clouds
3:00 PM 82.4 °F 81.7 °F 55.4 °F 39% 29.97 in 6.2 mi East 10.4 mph - N/A   Mostly Cloudy
4:00 PM 80.6 °F 80.8 °F 57.2 °F 45% 29.97 in 6.2 mi East 8.1 mph - N/A   Scattered Clouds
5:00 PM 78.8 °F - 57.2 °F 47% 29.97 in 6.2 mi ESE 10.4 mph - N/A   Scattered Clouds
6:00 PM 74 °F - 59 °F 49% 29.88 in 12 mi ESE 8.1 mph - -   Scattered Clouds
6:00 PM 73.4 °F - 59.0 °F 61% 30.00 in 6.2 mi ESE 8.1 mph - N/A   Scattered Clouds
7:00 PM 71.6 °F - 60.8 °F 69% 30.02 in - East 6.9 mph - N/A   Clear
8:00 PM 71.6 °F - 60.8 °F 69% 30.04 in - East 8.1 mph - N/A   Clear
9:00 PM 71 °F - 61 °F 62% 29.91 in 12 mi East 5.8 mph - -   Clear
9:00 PM 69.8 °F - 60.8 °F 73% 30.05 in - East 5.8 mph - N/A   Clear
10:00 PM 68.0 °F - 59.0 °F 73% 30.06 in - ENE 4.6 mph - N/A   Clear
11:00 PM 66.2 °F - 57.2 °F 73% 30.06 in - ENE 6.9 mph - N/A   Clear